Caldwell, NJ

3:31 AM EDT on July 27, 2017 (GMT -0400)
Essex County

Weather History for KCDW - October, 2011

Change the Weather History Date:

Monday, October 17, 2011

  Actual Average Record
Temperature  
Mean Temperature 58 °F -  
Max Temperature 66 °F 65 °F 83 °F (1956)
Min Temperature 51 °F 41 °F 30 °F (1978)
Degree Days  
Heating Degree Days 7    
Growing Degree Days 8 (Base 50)    
Moisture  
Dew Point 40 °F    
Average Humidity 53    
Maximum Humidity 80    
Minimum Humidity 31    
Precipitation  
Precipitation 0.00 in - - ()
Sea Level Pressure  
Sea Level Pressure 29.76 in    
Wind  
Wind Speed 5 mph (West)    
Max Wind Speed 12 mph    
Max Gust Speed 23 mph    
Visibility 10 miles    
Events Rain    
Averages and records for this station are not official NWS values.
T = Trace of Precipitation, MM = Missing Value Source: NWS Daily Summary

Daily Weather History Graph

Daily Weather History Graph

Search for Another Location

Airport or City:

Trip Planner

Search our weather history database for the weather conditions in past years. The results will help you decide how hot, cold, wet, or windy it might be!

Date:

Astronomy

Oct. 17, 2011 Rise Set
Actual Time 7:10 AM EDT 6:14 PM EDT
Civil Twilight 6:42 AM EDT 6:41 PM EDT
Nautical Twilight 6:10 AM EDT 7:13 PM EDT
Astronomical Twilight 5:38 AM EDT 7:45 PM EDT
Moon 9:50 PM EDT (10/17) 12:16 PM EDT (10/17)
Length of Visible Light 11h 59m
Length of Day
11h 03m
Waning Gibbous, 74% of the Moon is Illuminated
Oct 17
Waning Gibbous
Oct 19
Last Quarter
Oct 26
New
Nov 2
First Quarter
Nov 10
Full

Hourly Weather History & Observations

Time (EDT) Temp. Dew Point Humidity Pressure Visibility Wind Dir Wind Speed Gust Speed Precip Events Conditions
12:53 AM 59.0 °F 45.0 °F 60% 29.68 in 10.0 mi WNW 3.5 mph - N/A   Overcast
1:53 AM 57.0 °F 46.0 °F 67% 29.68 in 10.0 mi Calm Calm - N/A   Overcast
2:53 AM 59.0 °F 48.0 °F 67% 29.69 in 10.0 mi WNW 9.2 mph - N/A   Overcast
3:53 AM 57.9 °F 50.0 °F 75% 29.69 in 10.0 mi WNW 4.6 mph - 0.00 in   Overcast
4:53 AM 57.9 °F 48.9 °F 72% 29.70 in 10.0 mi WNW 10.4 mph 19.6 mph 0.00 in Rain Light Rain
6:53 AM 55.9 °F 50.0 °F 80% 29.74 in 10.0 mi WNW 5.8 mph - 0.00 in   Mostly Cloudy
7:53 AM 55.9 °F 46.9 °F 72% 29.79 in 10.0 mi NW 8.1 mph - N/A   Mostly Cloudy
8:53 AM 55.0 °F 44.1 °F 67% 29.81 in 10.0 mi WNW 4.6 mph - N/A   Partly Cloudy
9:53 AM 57.9 °F 43.0 °F 58% 29.81 in 10.0 mi West 5.8 mph - N/A   Clear
10:53 AM 61.0 °F 36.0 °F 39% 29.80 in 10.0 mi Variable 6.9 mph 16.1 mph N/A   Clear
11:53 AM 62.1 °F 35.1 °F 37% 29.80 in 10.0 mi West 8.1 mph 16.1 mph N/A   Clear
12:53 PM 63.0 °F 32.0 °F 31% 29.78 in 10.0 mi West 11.5 mph 20.7 mph N/A   Clear
2:53 PM 64.9 °F 33.1 °F 31% 29.73 in 10.0 mi SW 9.2 mph 16.1 mph N/A   Clear
3:53 PM 64.9 °F 33.1 °F 31% 29.74 in 10.0 mi SW 10.4 mph 23.0 mph N/A   Clear
4:53 PM 64.9 °F 33.1 °F 31% 29.73 in 10.0 mi WSW 8.1 mph - N/A   Clear
5:53 PM 63.0 °F 34.0 °F 34% 29.75 in 10.0 mi Variable 4.6 mph - N/A   Clear
6:53 PM 60.1 °F 36.0 °F 41% 29.76 in 10.0 mi WSW 4.6 mph - N/A   Clear
8:53 PM 57.0 °F 36.0 °F 45% 29.78 in 10.0 mi Calm Calm - N/A   Clear
9:53 PM 54.0 °F 37.0 °F 53% 29.80 in 10.0 mi Calm Calm - N/A   Clear
10:53 PM 52.0 °F 37.9 °F 59% 29.81 in 10.0 mi Calm Calm - N/A   Clear
11:53 PM 51.1 °F 39.0 °F 63% 29.82 in 10.0 mi Calm Calm - N/A   Clear